User: anonymous   Login
Location: Wildcat Hills Observatory
(41.6350°N, 103.6812°W)
Time: 07:56:11
(UTC-06:00)
Language:

Cosmos 1634 Rocket - Orbit

View from above orbital plane
View from above orbital plane
View from above satellite
View from above satellite

Ground track
Ground track

The orbit data is extracted from the following two-line orbital elements,

1 15598U 85022B   17173.91894914 +.00000046 +00000-0 +30740-4 0  9997
2 15598 082.9383 102.8506 0023588 092.7538 310.6337 13.76565315621010
Epoch (UTC): 22 June 2017 22:03:17
Eccentricity: 0.0023588
inclination: 82.9383°
perigee height: 959 km
apogee height: 993 km
right ascension of ascending node: 102.8506°
argument of perigee: 92.7538°
revolutions per day: 13.76565315
mean anomaly at epoch: 310.6337°
orbit number at epoch: 62101

The dashed part of the orbit path shows where the satellite is in the earth's shadow,  

DLR